Regional Weather Roundup
Issued by NWS Kansas City/Pleasant Hill, MO

Home | Current Version | Previous Version | Text Only | Print | Product List | Glossary On
Versions: 1 2 3 4 5 6 7 8 9 10 11 12 13 14 15 16 17 18 19 20 21 22 23 24 25 26 27 28 29 30 31 32 33 34 35 36 37 38 39 40 41 42 43 44 45 46 47 48 49 50
089
ASUS43 KEAX 191810
RWREAX

WEATHER ROUNDUP FOR EASTERN KANSAS AND NORTHWEST MISSOURI
NATIONAL WEATHER SERVICE KANSAS CITY/PLEASANT HILL MO
100 PM CDT THU OCT 19 2017

KSZ040-057-103>105-MOZ028-029-037-043-191900-
...KANSAS CITY METROPOLITAN AREA...

CITY           SKY/WX    TMP DP  RH WIND       PRES   REMARKS
K.C. INTL      FAIR      73  52  47 S8        30.11F
6HR MIN TEMP:  47; 6HR MAX TEMP:  74;

K.C. DOWNTOWN  FAIR      75  52  44 SW7       30.10F
6HR MIN TEMP:  52; 6HR MAX TEMP:  75;

LEES SUMMIT    FAIR      75  51  43 SW13      30.12F
6HR MIN TEMP:  53; 6HR MAX TEMP:  75;

OLATHE - IXD   FAIR      74  51  44 S10       30.12F
6HR MIN TEMP:  50; 6HR MAX TEMP:  75;

OLATHE - OJC   FAIR      73  52  47 S9        30.12F
6HR MIN TEMP:  51; 6HR MAX TEMP:  73;

LAWRENCE       FAIR      74  53  48 S9        30.10F

$$

MOZ001>008-011>017-020>025-030>033-038>040-044>046-053-054-191900-
...NORTHERN AND CENTRAL MISSOURI...

CITY           SKY/WX    TMP DP  RH WIND       PRES   REMARKS
ST. JOSEPH     FAIR      74  53  48 VRB6      30.09F
6HR MIN TEMP:  40; 6HR MAX TEMP:  74;

MOSBY          FAIR      73  46  38 S3        30.11F
WARRENSBURG    FAIR      75  50  41 S10       30.13F
WHITEMAN AFB   SUNNY     75  52  43 SW12      30.10F
6HR MIN TEMP:  49; 6HR MAX TEMP:  75;

CLINTON        FAIR      75  50  41 SW12      30.15F
SEDALIA        FAIR      77  52  41 S13       30.16F
6HR MIN TEMP:  57; 6HR MAX TEMP:  77;

WARSAW         NOT AVBL
CHILLICOTHE      N/A     73  54  51 SE6       30.13F
6HR MIN TEMP:  45; 6HR MAX TEMP:  73;

KIRKSVILLE     FAIR      72  56  57 SE8       30.14F
6HR MIN TEMP:  47; 6HR MAX TEMP:  72;


$$

MOZ041-047>049-056>058-063>065-088>090-097-191900-
...EASTERN AND SOUTHERN MISSOURI...

CITY           SKY/WX    TMP DP  RH WIND       PRES   REMARKS
ST. LOUIS INTL FAIR      75  50  41 SW7       30.19F
6HR MIN TEMP:  55; 6HR MAX TEMP:  76;

SPIRIT OF STL  FAIR      76  52  43 VRB6      30.17F
COLUMBIA       FAIR      75  51  43 SW8       30.17F
JEFFERSON CITY FAIR      75  49  39 W7        30.16F
ROLLA          FAIR      74  50  42 SW6       30.20F
OSAGE BEACH    FAIR      77  52  41 SW8       30.18F
SPRINGFIELD    FAIR      76  52  43 VRB7      30.19F
BRANSON        MOSUNNY   75  48  38 CALM      30.22F
JOPLIN         FAIR      76  54  46 SW13      30.17F
WEST PLAINS    FAIR      76  48  37 CALM      30.23F

$$

IAZ060-094-KSZ022-034>040-054-083-096-NEZ052-066-093-191900-
...KANSAS...SOUTHEAST NEBRASKA AND IOWA...

CITY           SKY/WX    TMP DP  RH WIND       PRES   REMARKS
TOPEKA         FAIR      75  53  46 S8        30.09F
6HR MIN TEMP:  47; 6HR MAX TEMP:  75;

MANHATTAN      FAIR      78  52  40 SW10      30.06F
EMPORIA        FAIR      75  51  43 S9        30.10F
CHANUTE        FAIR      75  53  46 S13       30.14F
WICHITA        FAIR      74  50  42 S14       30.09F
OMAHA          FAIR      72  52  49 S12       30.05F
LINCOLN        FAIR      74  54  49 S5        30.05F
FALLS CITY     FAIR      73  53  49 S7        30.06F
LAMONI         FAIR      70  55  59 SE7       30.11F
DES MOINES     PTSUNNY   72  43  35 E9        30.11F

$$





USA.gov is the U.S. government's official web portal to all federal, state and local government web resources and services.